Weather in Kurtashki

Russia / Republic of Mordovia     54°19′28″N   43°26′44″E
temp.,
°C
wind,
m/s
gust,
m/s
humid.,
%
clouds,
%
prec.,
mm/h
press.,
hPa
HPBL,
m
4 march, thu
thu400:00−3wsw6129592 0.1 1009557
03:00−2wsw6129496 0.3 1007699
06:00−2wsw71393100 0.2 1004758
09:00−1wsw91596100 0.6 1001854
12:000wsw91590100 0.9 1000933
15:000w91494100 1.0 1000981
18:00−1wsw61197100 0.8 1000597
21:00−1wnw3697100 2.6 1000352
5 march, fri
fri500:00−4nnw1298100 1.1 100030
03:00−4nw2298100 2.1 100174
06:00−6n3497100 0.5 100283
09:00−7nnw3595100 0.7 1005186
12:00−5nw249034 0.0 1007349
15:00−3w258760 0.1 1009577
18:00−7wsw449162 0.1 101066
21:00−9w499546 0.1 1012155
6 march, sat
sat600:00−11w44953 0.0 101470
03:00−12wnw34941 0.0 101535
06:00−15nw23960 0.0 101620
09:00−13n12930 0.0 101740
12:00−10ne11790 0.0 1017171
15:00−9ne118015 0.0 1015118
18:00−13s117417 0.0 101521
21:00−14ssw237923 0.0 101620
7 march, sun
sun700:00−12sw359699 0.1 101593
03:00−11wsw349797 0.3 101592
06:00−14wsw349788 0.1 101446
09:00−12sw6119260 0.1 1012298
12:00−7sw9148377 0.0 1008811
15:00−5sw10168288 0.1 10041142
18:00−5sw101794100 1.1 10001103
21:00−4wsw91495100 3.0 999899
8 march, mon
mon800:00−10w5108171 0.3 1000177
03:00−12sw5118435 0.3 1002172
06:00−12sw613780 0.0 1001216
09:00−10ssw612830 0.0 999318
12:00−4sw7108692 0.1 9961085
15:00−7w9137696 1.4 9981404
18:00−9w7148988 0.1 1002647
21:00−10wnw8158883 0.1 1006655